H1 CPF 2 NER 2025 8 14 9 226 01 glonass138 H2 1805301 9138 43508 2025 8 14 0 0 0 2025 8 17 23 45 0 900 1 1 0 0 0 1 H9 10 0 60901 0.00000 0 16099862.908 -14401419.426 -13542643.681 10 0 60901 900.00000 0 15069960.521 -12883988.994 -16029302.951 10 0 60901 1800.00000 0 14032617.789 -11035182.032 -18204168.994 10 0 60901 2700.00000 0 13045147.483 -8885874.965 -20024991.811 10 0 60901 3600.00000 0 12159276.770 -6478661.772 -21456427.835 10 0 60901 4500.00000 0 11418921.113 -3866320.848 -22470723.355 10 0 60901 5400.00000 0 10858307.298 -1109858.951 -23048248.393 10 0 60901 6300.00000 0 10500524.165 1723786.487 -23177871.351 10 0 60901 7200.00000 0 10356561.393 4564291.282 -22857167.853 10 0 60901 8100.00000 0 10424875.898 7340629.295 -22092460.440 10 0 60901 9000.00000 0 10691503.252 9983787.076 -20898688.947 10 0 60901 9900.00000 0 11130708.569 12429396.290 -19299114.525 10 0 60901 10800.00000 0 11706148.750 14620175.401 -17324863.344 10 0 60901 11700.00000 0 12372496.605 16508080.220 -15014318.943 10 0 60901 12600.00000 0 13077458.039 18056074.921 -12412375.013 10 0 60901 13500.00000 0 13764097.096 19239451.067 -9569563.047 10 0 60901 14400.00000 0 14373370.731 20046640.925 -6541071.616 10 0 60901 15300.00000 0 14846766.419 20479492.396 -3385676.232 10 0 60901 16200.00000 0 15128931.344 20552995.344 -164600.450 10 0 60901 17100.00000 0 15170182.266 20294471.941 3059669.760 10 0 60901 18000.00000 0 14928790.142 19742266.008 6224595.395 10 0 60901 18900.00000 0 14372943.002 18943987.196 9268794.136 10 0 60901 19800.00000 0 13482304.060 17954384.357 12133227.077 10 0 60901 20700.00000 0 12249098.968 16832937.821 14762339.579 10 0 60901 21600.00000 0 10678685.772 15641271.907 17105134.433 10 0 60901 22500.00000 0 8789582.702 14440496.254 19116156.911 10 0 60901 23400.00000 0 6612951.458 13288587.421 20756373.021 10 0 60901 24300.00000 0 4191556.216 12237920.296 21993924.457 10 0 60901 25200.00000 0 1578240.284 11333052.487 22804746.041 10 0 60901 26100.00000 0 -1166017.703 10608854.276 23173034.013 10 0 60901 27000.00000 0 -3974388.758 10089062.276 23091556.250 10 0 60901 27900.00000 0 -6776726.286 9785317.330 22561798.326 10 0 60901 28800.00000 0 -9502242.673 9696727.064 21593942.224 10 0 60901 29700.00000 0 -12082219.749 9809971.700 20206677.517 10 0 60901 30600.00000 0 -14452641.372 10099949.080 18426847.896 10 0 60901 31500.00000 0 -16556639.245 10530932.236 16288938.953 10 0 60901 32400.00000 0 -18346650.468 11058191.262 13834416.230 10 0 60901 33300.00000 0 -19786197.001 11630011.504 11110925.510 10 0 60901 34200.00000 0 -20851212.635 12190023.083 8171370.231 10 0 60901 35100.00000 0 -21530861.890 12679743.262 5072883.600 10 0 60901 36000.00000 0 -21827816.435 13041223.754 1875715.310 10 0 60901 36900.00000 0 -21757977.535 13219690.264 -1357945.114 10 0 60901 37800.00000 0 -21349656.455 13166061.538 -4565184.857 10 0 60901 38700.00000 0 -20642247.860 12839240.117 -7683599.699 10 0 60901 39600.00000 0 -19684452.811 12208076.555 -10652516.264 10 0 60901 40500.00000 0 -18532127.233 11252922.736 -13414179.854 10 0 60901 41400.00000 0 -17245847.487 9966707.427 -15914883.899 10 0 60901 42300.00000 0 -15888296.706 8355487.622 -18106018.366 10 0 60901 43200.00000 0 -14521582.813 6438451.496 -19945016.393 10 0 60901 44100.00000 0 -13204601.764 4247372.082 -21396180.678 10 0 60901 45000.00000 0 -11990557.244 1825533.999 -22431373.825 10 0 60901 45900.00000 0 -10924741.039 -773822.385 -23030559.697 10 0 60901 46800.00000 0 -10042666.895 -3489474.776 -23182185.945 10 0 60901 47700.00000 0 -9368635.522 -6254528.874 -22883400.995 10 0 60901 48600.00000 0 -8914789.977 -8998968.647 -22140101.987 10 0 60901 49500.00000 0 -8680699.955 -11652341.414 -20966813.365 10 0 60901 50400.00000 0 -8653491.262 -14146466.697 -19386398.912 10 0 60901 51300.00000 0 -8808513.865 -16418056.968 -17429613.132 10 0 60901 52200.00000 0 -9110519.420 -18411142.192 -15134500.795 10 0 60901 53100.00000 0 -9515297.872 -20079198.157 -12545656.310 10 0 60901 54000.00000 0 -9971703.574 -21386891.004 -9713357.181 10 0 60901 54900.00000 0 -10423985.044 -22311366.275 -6692588.242 10 0 60901 55800.00000 0 -10814319.806 -22843029.690 -3541975.477 10 0 60901 56700.00000 0 -11085447.175 -22985788.115 -322650.019 10 0 60901 57600.00000 0 -11183287.699 -22756741.614 2902935.725 10 0 60901 58500.00000 0 -11059438.577 -22185340.339 6072216.831 10 0 60901 59400.00000 0 -10673439.559 -21312042.421 9123726.143 10 0 60901 60300.00000 0 -9994713.476 -20186529.675 11998282.696 10 0 60901 61200.00000 0 -9004099.172 -18865556.366 14640135.365 10 0 60901 62100.00000 0 -7694911.687 -17410521.470 16998039.858 10 0 60901 63000.00000 0 -6073484.254 -15884866.131 19026248.552 10 0 60901 63900.00000 0 -4159168.235 -14351405.229 20685394.400 10 0 60901 64800.00000 0 -1983789.686 -12869704.433 21943252.291 10 0 60901 65700.00000 0 409416.349 -11493612.078 22775363.530 10 0 60901 66600.00000 0 2967350.938 -10269048.682 23165511.686 10 0 60901 67500.00000 0 5629013.159 -9232146.114 23106040.739 10 0 60901 68400.00000 0 8327798.804 -8407813.867 22598009.289 10 0 60901 69300.00000 0 10994041.837 -7808792.219 21651177.503 10 0 60901 70200.00000 0 13557694.251 -7435231.807 20283826.467 10 0 60901 71100.00000 0 15951033.951 -7274817.274 18522412.635 10 0 60901 72000.00000 0 18111288.657 -7303429.906 16401063.183 10 0 60901 72900.00000 0 19983066.939 -7486321.572 13960921.074 10 0 60901 73800.00000 0 21520495.071 -7779750.663 11249351.708 10 0 60901 74700.00000 0 22688970.287 -8133011.039 8319025.887 10 0 60901 75600.00000 0 23466456.820 -8490768.152 5226896.555 10 0 60901 76500.00000 0 23844270.107 -8795603.097 2033089.117 10 0 60901 77400.00000 0 23827316.019 -8990656.279 -1200272.714 10 0 60901 78300.00000 0 23433775.016 -9022257.775 -4410282.119 10 0 60901 79200.00000 0 22694244.713 -8842431.840 -7534480.926 10 0 60901 80100.00000 0 21650377.364 -8411168.214 -10512082.929 10 0 60901 81000.00000 0 20353070.319 -7698362.762 -13285163.976 10 0 60901 81900.00000 0 18860286.446 -6685344.105 -15799794.818 10 0 60901 82800.00000 0 17234597.173 -5365920.575 -18007093.965 10 0 60901 83700.00000 0 15540552.301 -3746902.317 -19864179.701 10 0 60901 84600.00000 0 13841987.830 -1848075.677 -21335002.712 10 0 60901 85500.00000 0 12199385.242 298369.775 -22391043.311 10 0 60902 0.00000 0 10667393.232 2648937.921 -23011860.229 10 0 60902 900.00000 0 9292614.655 5150402.440 -23185481.172 10 0 60902 1800.00000 0 8111752.764 7741794.241 -22908627.587 10 0 60902 2700.00000 0 7150190.644 10356721.747 -22186771.098 10 0 60902 3600.00000 0 6421064.145 12925924.823 -21034020.206 10 0 60902 4500.00000 0 5924864.935 15379957.769 -19472840.341 10 0 60902 5400.00000 0 5649588.968 17651890.154 -17533612.922 10 0 60902 6300.00000 0 5571422.762 19679913.808 -15254042.108 10 0 60902 7200.00000 0 5655937.383 21409748.109 -12678420.760 10 0 60902 8100.00000 0 5859738.821 22796744.161 -9856769.758 10 0 60902 9000.00000 0 6132504.435 23807600.923 -6843867.210 10 0 60902 9900.00000 0 6419318.957 24421622.433 -3698186.316 10 0 60902 10800.00000 0 6663211.057 24631464.415 -480762.333 10 0 60902 11700.00000 0 6807783.069 24443339.797 2745989.414 10 0 60902 12600.00000 0 6799822.610 23876675.213 5919481.577 10 0 60902 13500.00000 0 6591785.599 22963233.499 8978165.516 10 0 60902 14400.00000 0 6144045.632 21745739.374 11862721.319 10 0 60902 15300.00000 0 5426814.476 20276066.208 14517204.182 10 0 60902 16200.00000 0 4421652.236 18613059.942 16890125.185 10 0 60902 17100.00000 0 3122502.916 16820091.194 18935445.889 10 0 60902 18000.00000 0 1536210.910 14962437.733 20613467.879 10 0 60902 18900.00000 0 -317504.502 13104606.373 21891600.510 10 0 60902 19800.00000 0 -2406617.022 11307705.662 22744992.422 10 0 60902 20700.00000 0 -4687881.472 9626978.508 23157014.908 10 0 60902 21600.00000 0 -7108398.545 8109597.170 23119587.965 10 0 60902 22500.00000 0 -9607592.699 6792812.072 22633342.622 10 0 60902 23400.00000 0 -12119522.473 5702531.303 21707616.097 10 0 60902 24300.00000 0 -14575428.517 4852389.767 20360279.303 10 0 60902 25200.00000 0 -16906414.460 4243346.663 18617399.259 10 0 60902 26100.00000 0 -19046149.763 3863828.010 16512742.038 10 0 60902 27000.00000 0 -20933482.395 3690408.083 14087124.949 10 0 60902 27900.00000 0 -22514852.386 3689001.044 11387629.641 10 0 60902 28800.00000 0 -23746405.211 3816512.377 8466690.746 10 0 60902 29700.00000 0 -24595716.134 4022880.159 5381077.365 10 0 60902 30600.00000 0 -25043052.732 4253419.423 2190787.118 10 0 60902 31500.00000 0 -25082122.085 4451369.724 -1042125.437 10 0 60902 32400.00000 0 -24720270.834 4560537.105 -4254762.602 10 0 60902 33300.00000 0 -23978129.527 4527917.412 -7384615.123 10 0 60902 34200.00000 0 -22888716.257 4306188.581 -10370786.554 10 0 60902 35100.00000 0 -21496037.670 3855964.996 -13155185.589 10 0 60902 36000.00000 0 -19853246.724 3147717.267 -15683662.262 10 0 60902 36900.00000 0 -18020435.405 2163275.019 -17907065.209 10 0 60902 37800.00000 0 -16062155.851 896848.240 -19782199.032 10 0 60902 38700.00000 0 -14044774.573 -644476.802 -21272663.093 10 0 60902 39600.00000 0 -12033771.190 -2440788.671 -22349555.634 10 0 60902 40500.00000 0 -10091094.958 -4459947.370 -22992030.037 10 0 60902 41400.00000 0 -8272689.491 -6658701.990 -23187693.089 10 0 60902 42300.00000 0 -6626288.641 -8984283.092 -22932838.231 10 0 60902 43200.00000 0 -5189574.680 -11376403.747 -22232510.007 10 0 60902 44100.00000 0 -3988774.530 -13769586.234 -21100399.090 10 0 60902 45000.00000 0 -3037751.240 -16095717.821 -19558570.398 10 0 60902 45900.00000 0 -2337627.102 -18286729.676 -17637029.903 10 0 60902 46800.00000 0 -1876952.528 -20277287.834 -15373138.642 10 0 60902 47700.00000 0 -1632412.050 -22007384.601 -12810885.342 10 0 60902 48600.00000 0 -1570036.342 -23424722.942 -10000031.650 10 0 60902 49500.00000 0 -1646868.104 -24486794.939 -6995146.398 10 0 60902 50400.00000 0 -1813010.651 -25162568.052 -3854547.524 10 0 60902 51300.00000 0 -2013972.097 -25433709.280 -639172.064 10 0 60902 52200.00000 0 -2193205.684 -25295296.524 2588603.957 10 0 60902 53100.00000 0 -2294738.595 -24755987.789 5766172.864 10 0 60902 54000.00000 0 -2265777.979 -23837641.575 8831906.494 10 0 60902 54900.00000 0 -2059183.873 -22574404.576 11726347.840 10 0 60902 55800.00000 0 -1635704.412 -21011305.055 14393360.136 10 0 60902 56700.00000 0 -965878.667 -19202410.772 16781211.393 10 0 60902 57600.00000 0 -31526.437 -17208628.305 18843573.723 10 0 60902 58500.00000 0 1173238.444 -15095235.454 20540418.474 10 0 60902 59400.00000 0 2641514.834 -12929249.259 21838790.337 10 0 60902 60300.00000 0 4353662.998 -10776738.844 22713445.856 10 0 60902 61200.00000 0 6277894.758 -8700194.461 23147344.326 10 0 60902 62100.00000 0 8371382.031 -6756061.646 23131981.718 10 0 60902 63000.00000 0 10581839.241 -4992542.533 22667561.171 10 0 60902 63900.00000 0 12849515.244 -3447755.338 21762996.362 10 0 60902 64800.00000 0 15109513.291 -2148328.187 20435747.199 10 0 60902 65700.00000 0 17294343.613 -1108485.554 18711490.192 10 0 60902 66600.00000 0 19336603.136 -329665.127 16623629.018 10 0 60902 67500.00000 0 21171671.078 199319.170 14212653.804 10 0 60902 68400.00000 0 22740308.016 501575.117 11525360.678 10 0 60902 69300.00000 0 23991049.527 610920.949 8613946.079 10 0 60902 70200.00000 0 24882293.672 570216.380 5534992.998 10 0 60902 71100.00000 0 25383994.120 429306.888 2348368.755 10 0 60902 72000.00000 0 25478887.061 242668.908 -883943.934 10 0 60902 72900.00000 0 25163199.660 66856.518 -4099059.295 10 0 60902 73800.00000 0 24446809.697 -42141.142 -7234419.810 10 0 60902 74700.00000 0 23352849.366 -31518.548 -10229021.532 10 0 60902 75600.00000 0 21916769.868 145863.662 -13024608.559 10 0 60902 76500.00000 0 20184906.313 529238.637 -15566812.543 10 0 60902 77400.00000 0 18212603.695 1148031.698 -17806214.316 10 0 60902 78300.00000 0 16061983.135 2020378.563 -19699306.598 10 0 60902 79200.00000 0 13799442.583 3152126.787 -21209338.982 10 0 60902 80100.00000 0 11492997.112 4536363.208 -22307028.943 10 0 60902 81000.00000 0 9209570.262 6153487.816 -22971125.545 10 0 60902 81900.00000 0 7012349.499 7971831.421 -23188815.567 10 0 60902 82800.00000 0 4958315.772 9948791.605 -22955964.869 10 0 60902 83700.00000 0 3096049.410 12032439.764 -22277191.078 10 0 60902 84600.00000 0 1463902.731 14163532.469 -21165766.818 10 0 60902 85500.00000 0 88614.166 16277843.470 -19643355.867 10 0 60903 0.00000 0 -1015579.804 18308719.250 -17739587.865 10 0 60903 900.00000 0 -1847300.076 20189752.972 -15491478.884 10 0 60903 1800.00000 0 -2417833.212 21857462.948 -12942711.736 10 0 60903 2700.00000 0 -2750404.226 23253867.817 -10142786.499 10 0 60903 3600.00000 0 -2878944.388 24328848.564 -7146060.017 10 0 60903 4500.00000 0 -2846407.788 25042200.062 -4010691.957 10 0 60903 5400.00000 0 -2702708.444 25365286.516 -797517.885 10 0 60903 6300.00000 0 -2502365.748 25282231.776 2431128.883 10 0 60903 7200.00000 0 -2301958.150 24790594.908 5612623.785 10 0 60903 8100.00000 0 -2157492.982 23901502.881 8685262.546 10 0 60903 9000.00000 0 -2121803.754 22639234.860 11589454.332 10 0 60903 9900.00000 0 -2242084.995 21040275.467 14268873.466 10 0 60903 10800.00000 0 -2557668.908 19151876.419 16671547.680 10 0 60903 11700.00000 0 -3098137.885 17030186.351 18750862.102 10 0 60903 12600.00000 0 -3881852.833 14738026.461 20466459.965 10 0 60903 13500.00000 0 -4914959.940 12342404.180 21785023.028 10 0 60903 14400.00000 0 -6190918.528 9911867.750 22680917.062 10 0 60903 15300.00000 0 -7690571.002 7513811.109 23136690.206 10 0 60903 16200.00000 0 -9382753.386 5211840.404 23143414.770 10 0 60903 17100.00000 0 -11225422.494 3063310.874 22700865.800 10 0 60903 18000.00000 0 -13167254.214 1117135.828 21817532.655 10 0 60903 18900.00000 0 -15149647.720 -588041.744 20510462.851 10 0 60903 19800.00000 0 -17109053.280 -2025239.353 18804940.407 10 0 60903 20700.00000 0 -18979527.490 -3180029.432 16734004.060 10 0 60903 21600.00000 0 -20695409.859 -4050901.073 14337813.705 10 0 60903 22500.00000 0 -22194009.100 -4649074.290 11662876.512 10 0 60903 23400.00000 0 -23418186.503 -4997775.025 8761146.999 10 0 60903 24300.00000 0 -24318727.643 -5131001.868 5689018.167 10 0 60903 25200.00000 0 -24856402.128 -5091837.060 2506223.134 10 0 60903 26100.00000 0 -25003623.917 -4930373.836 -725331.048 10 0 60903 27000.00000 0 -24745641.448 -4701348.667 -3942774.177 10 0 60903 27900.00000 0 -24081206.636 -4461579.686 -7083503.875 10 0 60903 28800.00000 0 -23022693.888 -4267320.957 -10086411.810 10 0 60903 29700.00000 0 -21595663.710 -4171645.925 -12893080.267 10 0 60903 30600.00000 0 -19837889.066 -4221972.046 -15448924.905 10 0 60903 31500.00000 0 -17797885.514 -4457832.503 -17704260.704 10 0 60903 32400.00000 0 -15533007.044 -4908990.205 -19615269.952 10 0 60903 33300.00000 0 -13107187.798 -5593974.493 -21144853.351 10 0 60903 34200.00000 0 -10588424.512 -6519102.888 -22263347.884 10 0 60903 35100.00000 0 -8046105.095 -7678029.489 -22949097.966 10 0 60903 36000.00000 0 -5548294.789 -9051839.343 -23188869.440 10 0 60903 36900.00000 0 -3159092.757 -10609685.017 -22978099.130 10 0 60903 37800.00000 0 -936168.546 -12309938.907 -22320975.839 10 0 60903 38700.00000 0 1071419.988 -14101813.208 -21230351.875 10 0 60903 39600.00000 0 2825037.689 -15927379.979 -19727487.330 10 0 60903 40500.00000 0 4297838.150 -17723907.074 -17841632.399 10 0 60903 41400.00000 0 5475629.535 -19426412.583 -15609456.003 10 0 60903 42300.00000 0 6357205.812 -20970331.233 -13074331.789 10 0 60903 43200.00000 0 6954131.301 -22294181.574 -10285495.303 10 0 60903 44100.00000 0 7289989.274 -23342122.605 -7297088.469 10 0 60903 45000.00000 0 7399127.603 -24066293.056 -4167109.822 10 0 60903 45900.00000 0 7324955.503 -24428835.513 -956290.711 10 0 60903 46800.00000 0 7117864.077 -24403520.723 2273080.844 10 0 60903 47700.00000 0 6832859.093 -23976903.990 5458365.806 10 0 60903 48600.00000 0 6527006.394 -23148965.185 8537785.988 10 0 60903 49500.00000 0 6256798.096 -21933205.375 11451618.683 10 0 60903 50400.00000 0 6075550.956 -20356195.770 14143351.021 10 0 60903 51300.00000 0 6030946.794 -18456597.499 16560771.867 10 0 60903 52200.00000 0 6162818.866 -16283692.634 18656980.491 10 0 60903 53100.00000 0 6501277.650 -13895487.199 20391292.798 10 0 60903 54000.00000 0 7065255.327 -11356464.486 21730028.068 10 0 60903 54900.00000 0 7861530.733 -8735081.370 22647161.394 10 0 60903 55800.00000 0 8884276.565 -6101110.916 23124829.534 10 0 60903 56700.00000 0 10115148.895 -3522940.765 23153680.582 10 0 60903 57600.00000 0 11523916.547 -1064938.637 22733060.658 10 0 60903 58500.00000 0 13069605.380 1215006.434 21871033.719 10 0 60903 59400.00000 0 14702111.019 3267665.708 20584233.598 10 0 60903 60300.00000 0 16364213.910 5054285.107 18897550.356 10 0 60903 61200.00000 0 17993913.500 6547957.273 16843656.149 10 0 60903 62100.00000 0 19526984.619 7734494.564 14462378.869 10 0 60903 63000.00000 0 20899649.396 8612766.877 11799934.786 10 0 60903 63900.00000 0 22051252.667 9194490.552 8908034.423 10 0 60903 64800.00000 0 22926828.144 9503477.692 5842878.557 10 0 60903 65700.00000 0 23479446.824 9574378.038 2664063.740 10 0 60903 66600.00000 0 23672247.829 9450967.175 -566581.104 10 0 60903 67500.00000 0 23480065.129 9184054.213 -3786203.841 10 0 60903 68400.00000 0 22890580.534 8829098.450 -6932159.707 10 0 60903 69300.00000 0 21904953.403 8443637.007 -9943238.332 10 0 60903 70200.00000 0 20537899.774 8084633.564 -12760862.364 10 0 60903 71100.00000 0 18817217.036 7805861.597 -15330233.415 10 0 60903 72000.00000 0 16782773.838 7655433.946 -17601402.308 10 0 60903 72900.00000 0 14485007.576 7673584.127 -19530242.356 10 0 60903 73800.00000 0 11982992.501 7890793.810 -21079306.624 10 0 60903 74700.00000 0 9342159.462 8326345.983 -22218552.677 10 0 60903 75600.00000 0 6631762.641 8987365.067 -22925921.185 10 0 60903 76500.00000 0 3922198.914 9868384.477 -23187757.795 10 0 60903 77400.00000 0 1282291.274 10951459.814 -22999070.830 10 0 60903 78300.00000 0 -1223351.117 12206822.881 -22363620.537 10 0 60903 79200.00000 0 -3536787.321 13594049.028 -21293838.865 10 0 60903 80100.00000 0 -5608912.421 15063688.877 -19810581.808 10 0 60903 81000.00000 0 -7401249.962 16559296.092 -17942719.499 10 0 60903 81900.00000 0 -8887295.947 18019766.378 -15726572.155 10 0 60903 82800.00000 0 -10053360.075 19381889.850 -13205202.814 10 0 60903 83700.00000 0 -10898870.830 20583010.010 -10427580.528 10 0 60903 84600.00000 0 -11436133.403 21563678.056 -7447630.017 10 0 60903 85500.00000 0 -11689552.136 22270191.345 -4323186.130 10 0 60904 0.00000 0 -11694351.573 22656909.576 -1114873.502 10 0 60904 900.00000 0 -11494851.019 22688251.673 2115068.672 10 0 60904 1800.00000 0 -11142366.226 22340289.003 5303989.666 10 0 60904 2700.00000 0 -10692827.310 21601868.600 8390040.501 10 0 60904 3600.00000 0 -10204213.720 20475218.364 11313369.726 10 0 60904 4500.00000 0 -9733914.755 18976008.708 14017280.313 10 0 60904 5400.00000 0 -9336127.028 17132867.472 16449325.191 10 0 60904 6300.00000 0 -9059398.607 14986367.658 18562320.492 10 0 60904 7200.00000 0 -8944423.312 12587529.482 20315257.274 10 0 60904 8100.00000 0 -9022178.126 9995898.226 21674094.505 10 0 60904 9000.00000 0 -9312482.249 7277276.915 22612418.409 10 0 60904 9900.00000 0 -9823038.797 4501207.050 23111955.745 10 0 60904 10800.00000 0 -10549000.016 1738300.962 23162931.292 10 0 60904 11700.00000 0 -11473075.145 -942464.519 22764262.613 10 0 60904 12600.00000 0 -12566177.466 -3476381.658 21923588.059 10 0 60904 13500.00000 0 -13788584.595 -5805464.225 20657126.960 10 0 60904 14400.00000 0 -15091564.587 -7880617.504 18989373.988 10 0 60904 15300.00000 0 -16419400.743 -9663436.211 16952632.703 10 0 60904 16200.00000 0 -17711731.046 -11127555.853 14586396.419 10 0 60904 17100.00000 0 -18906104.580 -12259501.495 11936587.479 10 0 60904 18000.00000 0 -19940647.671 -13058998.753 9054668.991 10 0 60904 18900.00000 0 -20756727.374 -13538734.348 5996645.838 10 0 60904 19800.00000 0 -21301499.608 -13723576.748 2821974.178 10 0 60904 20700.00000 0 -21530233.615 -13649290.280 -407599.066 10 0 60904 21600.00000 0 -21408313.666 -13360797.741 -3629243.663 10 0 60904 22500.00000 0 -20912832.344 -12910065.786 -6780276.168 10 0 60904 23400.00000 0 -20033707.050 -12353703.565 -9799387.706 10 0 60904 24300.00000 0 -18774271.576 -11750377.343 -12627844.554 10 0 60904 25200.00000 0 -17151316.985 -11158151.598 -15210637.223 10 0 60904 26100.00000 0 -15194579.440 -10631870.157 -17497554.922 10 0 60904 27000.00000 0 -12945696.108 -10220688.936 -19444164.036 10 0 60904 27900.00000 0 -10456672.692 -9965865.183 -21012671.476 10 0 60904 28800.00000 0 -7787926.709 -9898896.916 -22172656.235 10 0 60904 29700.00000 0 -5005988.182 -10040091.112 -22901655.428 10 0 60904 30600.00000 0 -2180953.561 -10397620.858 -23185594.048 10 0 60904 31500.00000 0 616201.302 -10967110.874 -23019050.851 10 0 60904 32400.00000 0 3316337.787 -11731768.472 -22405355.961 10 0 60904 33300.00000 0 5854788.504 -12663054.091 -21356518.963 10 0 60904 34200.00000 0 8173800.088 -13721862.922 -19892989.419 10 0 60904 35100.00000 0 10224684.430 -14860167.772 -18043254.801 10 0 60904 36000.00000 0 11969590.263 -16023054.111 -15843283.805 10 0 60904 36900.00000 0 13382822.817 -17151061.784 -13335825.874 10 0 60904 37800.00000 0 14451658.157 -18182735.131 -10569580.434 10 0 60904 38700.00000 0 15176619.817 -19057274.484 -7598251.759 10 0 60904 39600.00000 0 15571207.715 -19717177.663 -4479507.703 10 0 60904 40500.00000 0 15661092.133 -20110760.528 -1273862.300 10 0 60904 41400.00000 0 15482807.883 -20194450.574 1956496.161 10 0 60904 42300.00000 0 15082004.546 -19934757.012 5148908.910 10 0 60904 43200.00000 0 14511327.248 -19309834.299 8241459.013 10 0 60904 44100.00000 0 13828017.718 -18310573.053 11174168.787 10 0 60904 45000.00000 0 13091337.062 -16941172.022 13890159.188 10 0 60904 45900.00000 0 12359918.912 -15219166.450 16336748.919 10 0 60904 46800.00000 0 11689164.410 -13174910.787 18466472.250 10 0 60904 47700.00000 0 11128788.608 -10850536.392 20237996.210 10 0 60904 48600.00000 0 10720621.344 -8298426.593 21616919.832 10 0 60904 49500.00000 0 10496754.994 -5579271.407 22576440.420 10 0 60904 50400.00000 0 10478116.970 -2759781.609 23097874.278 10 0 60904 51300.00000 0 10673527.116 89844.147 23171022.048 10 0 60904 52200.00000 0 11079280.012 2898595.234 22794371.594 10 0 60904 53100.00000 0 11679270.345 5597358.011 21975134.232 10 0 60904 54000.00000 0 12445656.893 8121546.405 20729113.141 10 0 60904 54900.00000 0 13340038.181 10413545.659 19080405.754 10 0 60904 55800.00000 0 14315091.315 12424868.257 17060945.036 10 0 60904 56700.00000 0 15316605.969 14117932.725 14709887.599 10 0 60904 57600.00000 0 16285828.533 15467391.424 12072859.610 10 0 60904 58500.00000 0 17162018.054 16460952.073 9201074.422 10 0 60904 59400.00000 0 17885106.154 17099658.816 6150338.586 10 0 60904 60300.00000 0 18398348.346 17397621.330 2979965.374 10 0 60904 61200.00000 0 18650853.999 17381203.775 -248382.812 10 0 60904 62100.00000 0 18599887.106 17087708.326 -3471900.129 10 0 60904 63000.00000 0 18212839.427 16563609.598 -6627866.838 10 0 60904 63900.00000 0 17468791.386 15862415.442 -9654877.771 10 0 60904 64800.00000 0 16359593.608 15042245.566 -12494044.820 10 0 60904 65700.00000 0 14890422.364 14163231.385 -15090149.122 10 0 60904 66600.00000 0 13079784.620 13284848.026 -17392719.731 10 0 60904 67500.00000 0 10958971.781 12463292.060 -19357017.322 10 0 60904 68400.00000 0 8570984.552 11749016.290 -20944903.649 10 0 60904 69300.00000 0 5968973.642 11184525.934 -22125579.966 10 0 60904 70200.00000 0 3214261.262 10802529.130 -22876180.511 10 0 60904 71100.00000 0 374025.760 10624519.358 -23182210.153 10 0 60904 72000.00000 0 -2481254.382 10659848.979 -23037818.433 10 0 60904 72900.00000 0 -5280491.255 10905332.158 -22445905.467 10 0 60904 73800.00000 0 -7954701.641 11345393.180 -21418058.314 10 0 60904 74700.00000 0 -10439632.533 11952753.210 -19974319.601 10 0 60904 75600.00000 0 -12678189.927 12689626.030 -18142793.288 10 0 60904 76500.00000 0 -14622571.096 13509372.037 -15959095.355 10 0 60904 77400.00000 0 -16236012.925 14358540.622 -13465660.132 10 0 60904 78300.00000 0 -17494084.860 15179214.849 -10710915.627 10 0 60904 79200.00000 0 -18385474.023 15911559.695 -7748343.656 10 0 60904 80100.00000 0 -18912231.054 16496466.564 -4635442.865 10 0 60904 81000.00000 0 -19089467.774 16878182.683 -1432614.622 10 0 60904 81900.00000 0 -18944520.552 17006814.624 1798006.773 10 0 60904 82800.00000 0 -18515615.534 16840600.365 4993756.846 10 0 60904 83700.00000 0 -17850092.658 16347853.990 8092653.431 10 0 60904 84600.00000 0 -17002263.754 15508500.828 11034595.419 10 0 60904 85500.00000 0 -16030995.233 14315137.938 13762524.591 99